This is the latest recevied weather packets stored in our database for station/object N3MFL. If no packets are shown the sender has not sent any weather packets the latest 10 day(s).
| Time | Temp. | Humidity | Pressure | Rain* | Wind** | Luminosity | Snow |
|---|---|---|---|---|---|---|---|
| 1778086741 | 18.89° C | 70% | 1010.7 hPa | 0 mm | - | 297 W/m² | - |
| 1778086439 | 18.89° C | 69% | 1010.7 hPa | 0 mm | - | 308 W/m² | - |
| 1778086135 | 18.89° C | 69% | 1010.8 hPa | 0 mm | - | 345 W/m² | - |
| 1778085831 | 19.44° C | 69% | 1011 hPa | 0 mm | - | 331 W/m² | - |
| 1778085530 | 18.89° C | 69% | 1011 hPa | 0 mm | - | 336 W/m² | - |
| 1778085223 | 18.89° C | 70% | 1011.2 hPa | 0 mm | - | 331 W/m² | - |
| 1778084919 | 18.89° C | 70% | 1011.1 hPa | 0 mm | - | 336 W/m² | - |
| 1778084617 | 18.89° C | 70% | 1011.1 hPa | 0 mm | - | 298 W/m² | - |
| 1778084314 | 18.89° C | 70% | 1011.2 hPa | 0 mm | - | 296 W/m² | - |
| 1778084012 | 18.89° C | 69% | 1011.3 hPa | 0 mm | - | 271 W/m² | - |
| 1778083709 | 18.89° C | 69% | 1011.3 hPa | 0 mm | - | 318 W/m² | - |
| 1778083405 | 18.89° C | 69% | 1011.2 hPa | 0 mm | - | 369 W/m² | - |
| 1778083105 | 18.89° C | 68% | 1011.4 hPa | 0 mm | - | 332 W/m² | - |
| 1778082801 | 18.89° C | 69% | 1011.4 hPa | 0 mm | - | 330 W/m² | - |
| 1778081673 | 19.44° C | 69% | 1011.7 hPa | 0 mm | - | 358 W/m² | - |
| 1778081371 | 19.44° C | 68% | 1011.8 hPa | 0 mm | - | 596 W/m² | - |
| 1778081067 | 18.89° C | 69% | 1011.7 hPa | 0 mm | - | 639 W/m² | - |
| 1778080766 | 18.33° C | 71% | 1011.7 hPa | 0 mm | - | 552 W/m² | - |
| 1778080462 | 18.33° C | 71% | 1011.7 hPa | 0 mm | - | 363 W/m² | - |
| 1778080160 | 18.33° C | 70% | 1011.8 hPa | 0 mm | - | 652 W/m² | - |
| 1778079856 | 18.33° C | 72% | 1012.1 hPa | 0 mm | - | 545 W/m² | - |
| 1778079553 | 18.33° C | 72% | 1011.9 hPa | 0 mm | - | 461 W/m² | - |
| 1778079249 | 18.33° C | 71% | 1011.8 hPa | 0 mm | - | 375 W/m² | - |
| 1778078947 | 17.78° C | 73% | 1011.8 hPa | 0 mm | - | 426 W/m² | - |
| 1778078643 | 17.78° C | 72% | 1011.8 hPa | 0 mm | - | 278 W/m² | - |
* Rain latest hour (hover to see other rain measurements)
** Current wind speed in m/s (hover to see current wind gust speed)